contact:dominique.lefevre@mio.osupytheas.fr, maurice.libes@osupytheas.fr, didier.mallarino@osupytheas.fr
Project:EMSO http://www.emso-fr.org/EMSO-France
Depth: 2436.0 m
Title:EMSO Ligure Ouest : Data MII capteur MICROCAT
DateTime_Computer,Latitude,Longitude,Temperature,Conductivity,Pressure,DateTime_Instrument
DateTime_Computer,Latitude,Longitude,degC,S m-1,dbar,DateTime_Instrument
2019-06-18T00:01:33Z,42.805,6.029,13.2945,4.59951,2469.821,2019-6-18T02:01:49Z
2019-06-18T00:04:36Z,42.805,6.029,13.2952,4.59954,2469.783,2019-6-18T02:04:52Z
2019-06-18T00:07:38Z,42.805,6.029,13.2953,4.59951,2469.783,2019-6-18T02:07:55Z
2019-06-18T00:10:41Z,42.805,6.029,13.2949,4.59952,2469.806,2019-6-18T02:10:58Z
2019-06-18T00:13:44Z,42.805,6.029,13.2947,4.59953,2469.797,2019-6-18T02:14:01Z
2019-06-18T00:16:47Z,42.805,6.029,13.2957,4.59951,2469.806,2019-6-18T02:17:04Z
2019-06-18T00:19:50Z,42.805,6.029,13.2952,4.59951,2469.844,2019-6-18T02:20:07Z
2019-06-18T00:22:53Z,42.805,6.029,13.2951,4.59953,2469.783,2019-6-18T02:23:09Z
2019-06-18T00:25:56Z,42.805,6.029,13.2950,4.59952,2469.821,2019-6-18T02:26:12Z
2019-06-18T00:28:59Z,42.805,6.029,13.2952,4.59951,2469.797,2019-6-18T02:29:15Z
2019-06-18T00:32:02Z,42.805,6.029,13.2952,4.59953,2469.806,2019-6-18T02:32:18Z
2019-06-18T00:35:05Z,42.805,6.029,13.2950,4.59954,2469.821,2019-6-18T02:35:21Z
2019-06-18T00:38:08Z,42.805,6.029,13.2957,4.59952,2469.797,2019-6-18T02:38:24Z
2019-06-18T00:41:11Z,42.805,6.029,13.2950,4.59951,2469.783,2019-6-18T02:41:27Z
2019-06-18T00:44:14Z,42.805,6.029,13.2949,4.59952,2469.783,2019-6-18T02:44:30Z
2019-06-18T00:47:17Z,42.805,6.029,13.2953,4.59951,2469.797,2019-6-18T02:47:33Z
2019-06-18T00:50:20Z,42.805,6.029,13.2950,4.59952,2469.76,2019-6-18T02:50:36Z
2019-06-18T00:53:23Z,42.805,6.029,13.2948,4.59952,2469.76,2019-6-18T02:53:39Z
2019-06-18T00:56:26Z,42.805,6.029,13.2957,4.59954,2469.783,2019-6-18T02:56:42Z
2019-06-18T00:59:29Z,42.805,6.029,13.2952,4.59954,2469.76,2019-6-18T02:59:45Z
2019-06-18T01:02:32Z,42.805,6.029,13.2950,4.59951,2469.797,2019-6-18T03:02:48Z
2019-06-18T01:05:34Z,42.805,6.029,13.2954,4.59954,2469.806,2019-6-18T03:05:51Z
2019-06-18T01:08:37Z,42.805,6.029,13.2949,4.59952,2469.806,2019-6-18T03:08:54Z
2019-06-18T01:11:40Z,42.805,6.029,13.2953,4.59952,2469.773,2019-6-18T03:11:57Z
2019-06-18T01:14:43Z,42.805,6.029,13.2950,4.59952,2469.76,2019-6-18T03:15:00Z
2019-06-18T01:17:46Z,42.805,6.029,13.2952,4.59953,2469.783,2019-6-18T03:18:03Z
2019-06-18T01:20:49Z,42.805,6.029,13.2952,4.59951,2469.737,2019-6-18T03:21:05Z
2019-06-18T01:23:52Z,42.805,6.029,13.2948,4.59951,2469.75,2019-6-18T03:24:08Z
2019-06-18T01:26:55Z,42.805,6.029,13.2953,4.59951,2469.76,2019-6-18T03:27:11Z
2019-06-18T01:29:58Z,42.805,6.029,13.2953,4.59954,2469.773,2019-6-18T03:30:14Z
2019-06-18T01:33:01Z,42.805,6.029,13.2952,4.59953,2469.713,2019-6-18T03:33:17Z
2019-06-18T01:36:04Z,42.805,6.029,13.2952,4.59951,2469.76,2019-6-18T03:36:20Z
2019-06-18T01:39:07Z,42.805,6.029,13.2956,4.59951,2469.737,2019-6-18T03:39:23Z
2019-06-18T01:42:10Z,42.805,6.029,13.2952,4.59953,2469.75,2019-6-18T03:42:26Z
2019-06-18T01:45:13Z,42.805,6.029,13.2949,4.59951,2469.76,2019-6-18T03:45:29Z
2019-06-18T01:48:16Z,42.805,6.029,13.2949,4.59952,2469.737,2019-6-18T03:48:32Z
2019-06-18T01:51:19Z,42.805,6.029,13.2952,4.59951,2469.76,2019-6-18T03:51:35Z
2019-06-18T01:54:22Z,42.805,6.029,13.2953,4.59952,2469.773,2019-6-18T03:54:38Z
2019-06-18T01:57:25Z,42.805,6.029,13.2949,4.59952,2469.737,2019-6-18T03:57:41Z
2019-06-18T02:00:28Z,42.805,6.029,13.2948,4.59952,2469.773,2019-6-18T04:00:44Z
2019-06-18T02:03:31Z,42.805,6.029,13.2952,4.59951,2469.76,2019-6-18T04:03:47Z
2019-06-18T02:06:33Z,42.805,6.029,13.2953,4.59952,2469.727,2019-6-18T04:06:50Z
2019-06-18T02:09:36Z,42.805,6.029,13.2953,4.59952,2469.713,2019-6-18T04:09:53Z
2019-06-18T02:12:39Z,42.805,6.029,13.2952,4.59951,2469.713,2019-6-18T04:12:56Z
2019-06-18T02:15:42Z,42.805,6.029,13.2952,4.59951,2469.737,2019-6-18T04:15:59Z
2019-06-18T02:18:45Z,42.805,6.029,13.2957,4.59951,2469.773,2019-6-18T04:19:02Z
2019-06-18T02:21:48Z,42.805,6.029,13.2953,4.59951,2469.727,2019-6-18T04:22:04Z
2019-06-18T02:24:51Z,42.805,6.029,13.2953,4.59951,2469.75,2019-6-18T04:25:07Z
2019-06-18T02:27:54Z,42.805,6.029,13.2951,4.59953,2469.727,2019-6-18T04:28:10Z
2019-06-18T02:30:57Z,42.805,6.029,13.2947,4.59951,2469.773,2019-6-18T04:31:13Z
2019-06-18T02:34:00Z,42.805,6.029,13.2956,4.59955,2469.773,2019-6-18T04:34:16Z
2019-06-18T02:37:03Z,42.805,6.029,13.2952,4.59954,2469.75,2019-6-18T04:37:19Z
2019-06-18T02:40:06Z,42.805,6.029,13.2953,4.59953,2469.737,2019-6-18T04:40:22Z
2019-06-18T02:43:09Z,42.805,6.029,13.2948,4.59953,2469.737,2019-6-18T04:43:25Z
2019-06-18T02:46:12Z,42.805,6.029,13.2950,4.59953,2469.713,2019-6-18T04:46:28Z
2019-06-18T02:49:15Z,42.805,6.029,13.2948,4.59952,2469.773,2019-6-18T04:49:31Z
2019-06-18T02:52:18Z,42.805,6.029,13.2955,4.59952,2469.737,2019-6-18T04:52:34Z
2019-06-18T02:55:21Z,42.805,6.029,13.2953,4.59952,2469.713,2019-6-18T04:55:37Z
2019-06-18T02:58:24Z,42.805,6.029,13.2947,4.59953,2469.737,2019-6-18T04:58:40Z
2019-06-18T03:01:27Z,42.805,6.029,13.2954,4.59951,2469.713,2019-6-18T05:01:43Z
2019-06-18T03:04:29Z,42.805,6.029,13.2948,4.59951,2469.737,2019-6-18T05:04:46Z
2019-06-18T03:07:32Z,42.805,6.029,13.2953,4.59951,2469.737,2019-6-18T05:07:49Z
2019-06-18T03:10:35Z,42.805,6.029,13.2952,4.59952,2469.737,2019-6-18T05:10:52Z
2019-06-18T03:13:38Z,42.805,6.029,13.2953,4.59951,2469.737,2019-6-18T05:13:55Z
2019-06-18T03:16:41Z,42.805,6.029,13.2951,4.59955,2469.783,2019-6-18T05:16:58Z
2019-06-18T03:19:44Z,42.805,6.029,13.2949,4.59952,2469.713,2019-6-18T05:20:01Z
2019-06-18T03:22:47Z,42.805,6.029,13.2953,4.59951,2469.76,2019-6-18T05:23:03Z
2019-06-18T03:25:50Z,42.805,6.029,13.2949,4.59951,2469.737,2019-6-18T05:26:06Z
2019-06-18T03:28:53Z,42.805,6.029,13.2949,4.59952,2469.75,2019-6-18T05:29:09Z
2019-06-18T03:31:56Z,42.805,6.029,13.2952,4.59952,2469.737,2019-6-18T05:32:12Z
2019-06-18T03:34:59Z,42.805,6.029,13.2951,4.59952,2469.727,2019-6-18T05:35:15Z
2019-06-18T03:38:02Z,42.805,6.029,13.2951,4.59953,2469.727,2019-6-18T05:38:18Z
2019-06-18T03:41:05Z,42.805,6.029,13.2953,4.59954,2469.727,2019-6-18T05:41:21Z
2019-06-18T03:44:08Z,42.805,6.029,13.2948,4.59953,2469.75,2019-6-18T05:44:24Z
2019-06-18T03:47:11Z,42.805,6.029,13.2953,4.59954,2469.737,2019-6-18T05:47:27Z
2019-06-18T03:50:14Z,42.805,6.029,13.2954,4.59952,2469.773,2019-6-18T05:50:30Z
2019-06-18T03:53:17Z,42.805,6.029,13.2953,4.59952,2469.773,2019-6-18T05:53:33Z
2019-06-18T03:56:20Z,42.805,6.029,13.2951,4.59951,2469.783,2019-6-18T05:56:36Z
2019-06-18T03:59:23Z,42.805,6.029,13.2951,4.59953,2469.76,2019-6-18T05:59:39Z
2019-06-18T04:02:25Z,42.805,6.029,13.2951,4.59954,2469.76,2019-6-18T06:02:42Z
2019-06-18T04:05:28Z,42.805,6.029,13.2948,4.59953,2469.737,2019-6-18T06:05:45Z
2019-06-18T04:08:31Z,42.805,6.029,13.2950,4.59953,2469.76,2019-6-18T06:08:48Z
2019-06-18T04:11:34Z,42.805,6.029,13.2951,4.59955,2469.737,2019-6-18T06:11:51Z
2019-06-18T04:14:37Z,42.805,6.029,13.2952,4.59953,2469.806,2019-6-18T06:14:54Z
2019-06-18T04:17:40Z,42.805,6.029,13.2952,4.59953,2469.783,2019-6-18T06:17:57Z
2019-06-18T04:20:43Z,42.805,6.029,13.2948,4.59953,2469.76,2019-6-18T06:21:00Z
2019-06-18T04:23:46Z,42.805,6.029,13.2952,4.59954,2469.76,2019-6-18T06:24:02Z
2019-06-18T04:26:49Z,42.805,6.029,13.2952,4.59954,2469.737,2019-6-18T06:27:05Z
2019-06-18T04:29:52Z,42.805,6.029,13.2950,4.59954,2469.797,2019-6-18T06:30:08Z
2019-06-18T04:32:55Z,42.805,6.029,13.2953,4.59953,2469.76,2019-6-18T06:33:11Z
2019-06-18T04:35:58Z,42.805,6.029,13.2951,4.59952,2469.737,2019-6-18T06:36:14Z
2019-06-18T04:39:01Z,42.805,6.029,13.2952,4.59953,2469.773,2019-6-18T06:39:17Z
2019-06-18T04:42:04Z,42.805,6.029,13.2951,4.59952,2469.783,2019-6-18T06:42:20Z
2019-06-18T04:45:07Z,42.805,6.029,13.2953,4.59954,2469.783,2019-6-18T06:45:23Z
2019-06-18T04:48:10Z,42.805,6.029,13.2952,4.59956,2469.821,2019-6-18T06:48:26Z
2019-06-18T04:51:13Z,42.805,6.029,13.2950,4.59954,2469.783,2019-6-18T06:51:29Z
2019-06-18T04:54:16Z,42.805,6.029,13.2949,4.59954,2469.806,2019-6-18T06:54:32Z
2019-06-18T04:57:19Z,42.805,6.029,13.2952,4.59955,2469.783,2019-6-18T06:57:35Z
2019-06-18T05:00:22Z,42.805,6.029,13.2956,4.59954,2469.783,2019-6-18T07:00:38Z
2019-06-18T05:03:24Z,42.805,6.029,13.2949,4.59953,2469.773,2019-6-18T07:03:41Z
2019-06-18T05:06:27Z,42.805,6.029,13.2952,4.59953,2469.797,2019-6-18T07:06:44Z
2019-06-18T05:09:30Z,42.805,6.029,13.2952,4.59954,2469.821,2019-6-18T07:09:47Z
2019-06-18T05:12:33Z,42.805,6.029,13.2954,4.59957,2469.783,2019-6-18T07:12:50Z
2019-06-18T05:15:36Z,42.805,6.029,13.2952,4.59954,2469.821,2019-6-18T07:15:53Z
2019-06-18T05:18:39Z,42.805,6.029,13.2951,4.59953,2469.844,2019-6-18T07:18:56Z
2019-06-18T05:21:42Z,42.805,6.029,13.2954,4.59956,2469.821,2019-6-18T07:21:58Z
2019-06-18T05:24:45Z,42.805,6.029,13.2953,4.59954,2469.783,2019-6-18T07:25:01Z
2019-06-18T05:27:48Z,42.805,6.029,13.2954,4.59953,2469.806,2019-6-18T07:28:04Z
2019-06-18T05:30:51Z,42.805,6.029,13.2955,4.59954,2469.821,2019-6-18T07:31:07Z
2019-06-18T05:33:54Z,42.805,6.029,13.2953,4.59955,2469.83,2019-6-18T07:34:10Z
2019-06-18T05:36:57Z,42.805,6.029,13.2952,4.59952,2469.844,2019-6-18T07:37:13Z
2019-06-18T05:40:00Z,42.805,6.029,13.2952,4.59954,2469.844,2019-6-18T07:40:16Z
2019-06-18T05:43:03Z,42.805,6.029,13.2955,4.59956,2469.83,2019-6-18T07:43:19Z
2019-06-18T05:46:06Z,42.805,6.029,13.2953,4.59956,2469.83,2019-6-18T07:46:22Z
2019-06-18T05:49:09Z,42.805,6.029,13.2952,4.59955,2469.83,2019-6-18T07:49:25Z
2019-06-18T05:52:12Z,42.805,6.029,13.2956,4.59955,2469.83,2019-6-18T07:52:28Z
2019-06-18T05:55:15Z,42.805,6.029,13.2952,4.59954,2469.867,2019-6-18T07:55:31Z
2019-06-18T05:58:18Z,42.805,6.029,13.2955,4.59953,2469.844,2019-6-18T07:58:34Z
2019-06-18T06:01:20Z,42.805,6.029,13.2954,4.59955,2469.853,2019-6-18T08:01:37Z
2019-06-18T06:04:23Z,42.805,6.029,13.2953,4.59954,2469.853,2019-6-18T08:04:40Z
2019-06-18T06:07:26Z,42.805,6.029,13.2953,4.59956,2469.853,2019-6-18T08:07:43Z
2019-06-18T06:10:29Z,42.805,6.029,13.2952,4.59956,2469.89,2019-6-18T08:10:46Z
2019-06-18T06:13:32Z,42.805,6.029,13.2953,4.59954,2469.867,2019-6-18T08:13:49Z
2019-06-18T06:16:35Z,42.805,6.029,13.2950,4.59956,2469.867,2019-6-18T08:16:52Z
2019-06-18T06:19:38Z,42.805,6.029,13.2951,4.59956,2469.853,2019-6-18T08:19:54Z
2019-06-18T06:22:41Z,42.805,6.029,13.2951,4.59955,2469.853,2019-6-18T08:22:57Z
2019-06-18T06:25:44Z,42.805,6.029,13.2953,4.59956,2469.867,2019-6-18T08:26:00Z
2019-06-18T06:28:47Z,42.805,6.029,13.2952,4.59954,2469.853,2019-6-18T08:29:03Z
2019-06-18T06:31:50Z,42.805,6.029,13.2952,4.59954,2469.853,2019-6-18T08:32:06Z
2019-06-18T06:34:53Z,42.805,6.029,13.2949,4.59955,2469.853,2019-6-18T08:35:09Z
2019-06-18T06:37:56Z,42.805,6.029,13.2953,4.59954,2469.853,2019-6-18T08:38:12Z
2019-06-18T06:40:59Z,42.805,6.029,13.2957,4.59954,2469.867,2019-6-18T08:41:15Z
2019-06-18T06:44:02Z,42.805,6.029,13.2952,4.59956,2469.83,2019-6-18T08:44:18Z
2019-06-18T06:47:05Z,42.805,6.029,13.2952,4.59956,2469.853,2019-6-18T08:47:21Z
2019-06-18T06:50:08Z,42.805,6.029,13.2954,4.59956,2469.853,2019-6-18T08:50:24Z
2019-06-18T06:53:11Z,42.805,6.029,13.2954,4.59954,2469.914,2019-6-18T08:53:27Z
2019-06-18T06:56:14Z,42.805,6.029,13.2950,4.59955,2469.867,2019-6-18T08:56:30Z
2019-06-18T06:59:16Z,42.805,6.029,13.2954,4.59956,2469.89,2019-6-18T08:59:33Z
2019-06-18T07:02:19Z,42.805,6.029,13.2952,4.59954,2469.876,2019-6-18T09:02:36Z
2019-06-18T07:05:22Z,42.805,6.029,13.2952,4.59956,2469.867,2019-6-18T09:05:39Z
2019-06-18T07:08:25Z,42.805,6.029,13.2952,4.59954,2469.876,2019-6-18T09:08:42Z
2019-06-18T07:11:28Z,42.805,6.029,13.2952,4.59956,2469.853,2019-6-18T09:11:45Z
2019-06-18T07:14:31Z,42.805,6.029,13.2953,4.59956,2469.844,2019-6-18T09:14:48Z
2019-06-18T07:17:34Z,42.805,6.029,13.2950,4.59954,2469.876,2019-6-18T09:17:50Z
2019-06-18T07:20:37Z,42.805,6.029,13.2952,4.59954,2469.83,2019-6-18T09:20:53Z
2019-06-18T07:23:40Z,42.805,6.029,13.2952,4.59954,2469.89,2019-6-18T09:23:56Z
2019-06-18T07:26:43Z,42.805,6.029,13.2953,4.59955,2469.867,2019-6-18T09:26:59Z
2019-06-18T07:29:46Z,42.805,6.029,13.2953,4.59955,2469.853,2019-6-18T09:30:02Z
2019-06-18T07:32:49Z,42.805,6.029,13.2952,4.59955,2469.853,2019-6-18T09:33:05Z
2019-06-18T07:35:52Z,42.805,6.029,13.2951,4.59954,2469.839,2019-6-18T09:36:08Z
2019-06-18T07:38:55Z,42.805,6.029,13.2952,4.59955,2469.853,2019-6-18T09:39:11Z
2019-06-18T07:41:58Z,42.805,6.029,13.2954,4.59954,2469.867,2019-6-18T09:42:14Z
2019-06-18T07:45:01Z,42.805,6.029,13.2952,4.59955,2469.876,2019-6-18T09:45:17Z
2019-06-18T07:48:04Z,42.805,6.029,13.2949,4.59953,2469.83,2019-6-18T09:48:20Z
2019-06-18T07:51:07Z,42.805,6.029,13.2953,4.59954,2469.853,2019-6-18T09:51:23Z
2019-06-18T07:54:10Z,42.805,6.029,13.2953,4.59955,2469.89,2019-6-18T09:54:26Z
2019-06-18T07:57:13Z,42.805,6.029,13.2953,4.59954,2469.876,2019-6-18T09:57:29Z
2019-06-18T08:00:15Z,42.805,6.029,13.2953,4.59954,2469.867,2019-6-18T10:00:32Z
2019-06-18T08:03:18Z,42.805,6.029,13.2952,4.59953,2469.867,2019-6-18T10:03:35Z
2019-06-18T08:06:21Z,42.805,6.029,13.2952,4.59958,2469.853,2019-6-18T10:06:38Z
2019-06-18T08:09:24Z,42.805,6.029,13.2952,4.59956,2469.844,2019-6-18T10:09:41Z
2019-06-18T08:12:27Z,42.805,6.029,13.2951,4.59961,2469.83,2019-6-18T10:12:44Z
2019-06-18T08:15:30Z,42.805,6.029,13.2951,4.59954,2469.844,2019-6-18T10:15:47Z
2019-06-18T08:18:33Z,42.805,6.029,13.2950,4.59954,2469.853,2019-6-18T10:18:49Z
2019-06-18T08:21:36Z,42.805,6.029,13.2953,4.59954,2469.83,2019-6-18T10:21:52Z
2019-06-18T08:24:39Z,42.805,6.029,13.2949,4.59955,2469.89,2019-6-18T10:24:55Z
2019-06-18T08:27:42Z,42.805,6.029,13.2953,4.59957,2469.83,2019-6-18T10:27:58Z
2019-06-18T08:30:45Z,42.805,6.029,13.2953,4.59954,2469.867,2019-6-18T10:31:01Z
2019-06-18T08:33:48Z,42.805,6.029,13.2953,4.59955,2469.806,2019-6-18T10:34:04Z
2019-06-18T08:36:51Z,42.805,6.029,13.2952,4.59955,2469.806,2019-6-18T10:37:07Z
2019-06-18T08:39:54Z,42.805,6.029,13.2953,4.59954,2469.806,2019-6-18T10:40:10Z
2019-06-18T08:42:57Z,42.805,6.029,13.2956,4.59955,2469.806,2019-6-18T10:43:13Z
2019-06-18T08:46:00Z,42.805,6.029,13.2954,4.59954,2469.83,2019-6-18T10:46:16Z
2019-06-18T08:49:03Z,42.805,6.029,13.2950,4.59956,2469.806,2019-6-18T10:49:19Z
2019-06-18T08:52:06Z,42.805,6.029,13.2947,4.59954,2469.853,2019-6-18T10:52:22Z
2019-06-18T08:55:09Z,42.805,6.029,13.2951,4.59955,2469.821,2019-6-18T10:55:25Z
2019-06-18T08:58:12Z,42.805,6.029,13.2950,4.59956,2469.83,2019-6-18T10:58:28Z
2019-06-18T09:01:15Z,42.805,6.029,13.2952,4.59957,2469.844,2019-6-18T11:01:31Z
2019-06-18T09:04:17Z,42.805,6.029,13.2951,4.59955,2469.83,2019-6-18T11:04:34Z
2019-06-18T09:07:20Z,42.805,6.029,13.2951,4.59954,2469.853,2019-6-18T11:07:37Z
2019-06-18T09:10:23Z,42.805,6.029,13.2948,4.59955,2469.853,2019-6-18T11:10:40Z
2019-06-18T09:13:26Z,42.805,6.029,13.2955,4.59954,2469.797,2019-6-18T11:13:43Z
2019-06-18T09:16:29Z,42.805,6.029,13.2953,4.59952,2469.844,2019-6-18T11:16:46Z
2019-06-18T09:19:32Z,42.805,6.029,13.2948,4.59952,2469.806,2019-6-18T11:19:49Z
2019-06-18T09:22:35Z,42.805,6.029,13.2949,4.59954,2469.806,2019-6-18T11:22:52Z
2019-06-18T09:25:38Z,42.805,6.029,13.2950,4.59954,2469.821,2019-6-18T11:25:54Z
2019-06-18T09:28:41Z,42.805,6.029,13.2952,4.59953,2469.821,2019-6-18T11:28:57Z
2019-06-18T09:31:44Z,42.805,6.029,13.2952,4.59953,2469.83,2019-6-18T11:32:00Z
2019-06-18T09:34:47Z,42.805,6.029,13.2951,4.59954,2469.806,2019-6-18T11:35:03Z
2019-06-18T09:37:50Z,42.805,6.029,13.2952,4.59952,2469.844,2019-6-18T11:38:06Z
2019-06-18T09:40:53Z,42.805,6.029,13.2951,4.59954,2469.83,2019-6-18T11:41:09Z
2019-06-18T09:43:56Z,42.805,6.029,13.2952,4.59954,2469.844,2019-6-18T11:44:12Z
2019-06-18T09:46:59Z,42.805,6.029,13.2949,4.59954,2469.83,2019-6-18T11:47:15Z
2019-06-18T09:50:02Z,42.805,6.029,13.2953,4.59953,2469.806,2019-6-18T11:50:18Z
2019-06-18T09:53:05Z,42.805,6.029,13.2952,4.59954,2469.783,2019-6-18T11:53:21Z
2019-06-18T09:56:08Z,42.805,6.029,13.2952,4.59952,2469.806,2019-6-18T11:56:24Z
2019-06-18T09:59:11Z,42.805,6.029,13.2953,4.59956,2469.806,2019-6-18T11:59:27Z
2019-06-18T10:02:14Z,42.805,6.029,13.2955,4.59954,2469.821,2019-6-18T12:02:30Z
2019-06-18T10:05:17Z,42.805,6.029,13.2950,4.59953,2469.821,2019-6-18T12:05:33Z
2019-06-18T10:08:19Z,42.805,6.029,13.2950,4.59952,2469.783,2019-6-18T12:08:36Z
2019-06-18T10:11:22Z,42.805,6.029,13.2953,4.59952,2469.797,2019-6-18T12:11:39Z
2019-06-18T10:14:25Z,42.805,6.029,13.2950,4.59952,2469.806,2019-6-18T12:14:42Z
2019-06-18T10:17:28Z,42.805,6.029,13.2953,4.59952,2469.783,2019-6-18T12:17:45Z
2019-06-18T10:20:31Z,42.805,6.029,13.2956,4.59954,2469.76,2019-6-18T12:20:48Z
2019-06-18T10:23:34Z,42.805,6.029,13.2953,4.59954,2469.806,2019-6-18T12:23:51Z
2019-06-18T10:26:37Z,42.805,6.029,13.2952,4.59953,2469.783,2019-6-18T12:26:54Z
2019-06-18T10:29:40Z,42.805,6.029,13.2948,4.59954,2469.783,2019-6-18T12:29:56Z
2019-06-18T10:32:43Z,42.805,6.029,13.2954,4.59953,2469.76,2019-6-18T12:32:59Z
2019-06-18T10:35:46Z,42.805,6.029,13.2948,4.59954,2469.76,2019-6-18T12:36:02Z
2019-06-18T10:38:49Z,42.805,6.029,13.2946,4.59953,2469.783,2019-6-18T12:39:05Z
2019-06-18T10:41:52Z,42.805,6.029,13.2952,4.59954,2469.797,2019-6-18T12:42:08Z
2019-06-18T10:44:55Z,42.805,6.029,13.2953,4.59953,2469.797,2019-6-18T12:45:11Z
2019-06-18T10:47:58Z,42.805,6.029,13.2949,4.59953,2469.773,2019-6-18T12:48:14Z
2019-06-18T10:51:01Z,42.805,6.029,13.2951,4.59954,2469.783,2019-6-18T12:51:17Z
2019-06-18T10:54:04Z,42.805,6.029,13.2953,4.59954,2469.75,2019-6-18T12:54:20Z
2019-06-18T10:57:07Z,42.805,6.029,13.2953,4.59953,2469.797,2019-6-18T12:57:23Z
2019-06-18T11:00:10Z,42.805,6.029,13.2953,4.59953,2469.773,2019-6-18T13:00:26Z
2019-06-18T11:03:13Z,42.805,6.029,13.2953,4.59956,2469.76,2019-6-18T13:03:29Z
2019-06-18T11:06:16Z,42.805,6.029,13.2953,4.59953,2469.75,2019-6-18T13:06:32Z
2019-06-18T11:09:19Z,42.805,6.029,13.2958,4.59954,2469.737,2019-6-18T13:09:35Z
2019-06-18T11:12:22Z,42.805,6.029,13.2953,4.59954,2469.773,2019-6-18T13:12:38Z
2019-06-18T11:15:24Z,42.805,6.029,13.2950,4.59955,2469.773,2019-6-18T13:15:41Z
2019-06-18T11:18:27Z,42.805,6.029,13.2950,4.59954,2469.76,2019-6-18T13:18:44Z
2019-06-18T11:21:30Z,42.805,6.029,13.2950,4.59952,2469.76,2019-6-18T13:21:47Z
2019-06-18T11:24:33Z,42.805,6.029,13.2951,4.59954,2469.76,2019-6-18T13:24:50Z
2019-06-18T11:27:36Z,42.805,6.029,13.2956,4.59953,2469.727,2019-6-18T13:27:53Z
2019-06-18T11:30:39Z,42.805,6.029,13.2950,4.59953,2469.76,2019-6-18T13:30:56Z
2019-06-18T11:33:42Z,42.805,6.029,13.2952,4.59953,2469.75,2019-6-18T13:33:58Z
2019-06-18T11:36:45Z,42.805,6.029,13.2950,4.59953,2469.713,2019-6-18T13:37:01Z
2019-06-18T11:39:48Z,42.805,6.029,13.2953,4.59954,2469.737,2019-6-18T13:40:04Z
2019-06-18T11:42:51Z,42.805,6.029,13.2949,4.59953,2469.737,2019-6-18T13:43:07Z
2019-06-18T11:45:54Z,42.805,6.029,13.2952,4.59954,2469.737,2019-6-18T13:46:10Z
2019-06-18T11:48:57Z,42.805,6.029,13.2953,4.59954,2469.699,2019-6-18T13:49:13Z
2019-06-18T11:52:00Z,42.805,6.029,13.2951,4.59954,2469.727,2019-6-18T13:52:16Z
2019-06-18T11:55:03Z,42.805,6.029,13.2952,4.59953,2469.69,2019-6-18T13:55:19Z
2019-06-18T11:58:06Z,42.805,6.029,13.2954,4.59954,2469.727,2019-6-18T13:58:22Z
2019-06-18T12:01:09Z,42.805,6.029,13.2952,4.59952,2469.737,2019-6-18T14:01:25Z
2019-06-18T12:04:12Z,42.805,6.029,13.2952,4.59953,2469.713,2019-6-18T14:04:28Z
2019-06-18T12:07:15Z,42.805,6.029,13.2951,4.59954,2469.713,2019-6-18T14:07:31Z
2019-06-18T12:10:18Z,42.805,6.029,13.2950,4.59953,2469.704,2019-6-18T14:10:34Z
2019-06-18T12:13:21Z,42.805,6.029,13.2951,4.59953,2469.75,2019-6-18T14:13:37Z
2019-06-18T12:16:24Z,42.805,6.029,13.2950,4.59954,2469.713,2019-6-18T14:16:40Z
2019-06-18T12:19:26Z,42.805,6.029,13.2948,4.59952,2469.727,2019-6-18T14:19:43Z
2019-06-18T12:22:29Z,42.805,6.029,13.2952,4.59951,2469.713,2019-6-18T14:22:46Z
2019-06-18T12:25:32Z,42.805,6.029,13.2953,4.59952,2469.69,2019-6-18T14:25:49Z
2019-06-18T12:28:35Z,42.805,6.029,13.2952,4.59954,2469.704,2019-6-18T14:28:52Z
2019-06-18T12:31:38Z,42.805,6.029,13.2954,4.59953,2469.704,2019-6-18T14:31:55Z
2019-06-18T12:34:41Z,42.805,6.029,13.2952,4.59952,2469.727,2019-6-18T14:34:58Z
2019-06-18T12:37:44Z,42.805,6.029,13.2953,4.59953,2469.727,2019-6-18T14:38:01Z
2019-06-18T12:40:47Z,42.805,6.029,13.2952,4.59953,2469.713,2019-6-18T14:41:03Z
2019-06-18T12:43:50Z,42.805,6.029,13.2953,4.59952,2469.727,2019-6-18T14:44:06Z
2019-06-18T12:46:53Z,42.805,6.029,13.2953,4.59953,2469.704,2019-6-18T14:47:09Z
2019-06-18T12:49:56Z,42.805,6.029,13.2951,4.59953,2469.737,2019-6-18T14:50:12Z
2019-06-18T12:52:59Z,42.805,6.029,13.2952,4.59953,2469.737,2019-6-18T14:53:15Z
2019-06-18T12:56:02Z,42.805,6.029,13.2950,4.59954,2469.69,2019-6-18T14:56:18Z
2019-06-18T12:59:05Z,42.805,6.029,13.2948,4.59952,2469.727,2019-6-18T14:59:21Z
2019-06-18T13:02:08Z,42.805,6.029,13.2953,4.59952,2469.727,2019-6-18T15:02:24Z
2019-06-18T13:05:11Z,42.805,6.029,13.2952,4.59952,2469.704,2019-6-18T15:05:27Z
2019-06-18T13:08:14Z,42.805,6.029,13.2951,4.59953,2469.69,2019-6-18T15:08:30Z
2019-06-18T13:11:17Z,42.805,6.029,13.2947,4.59951,2469.713,2019-6-18T15:11:33Z
2019-06-18T13:14:20Z,42.805,6.029,13.2950,4.59951,2469.704,2019-6-18T15:14:36Z
2019-06-18T13:17:23Z,42.805,6.029,13.2948,4.59953,2469.667,2019-6-18T15:17:39Z
2019-06-18T13:20:26Z,42.805,6.029,13.2952,4.59951,2469.667,2019-6-18T15:20:42Z
2019-06-18T13:23:29Z,42.805,6.029,13.2952,4.59952,2469.69,2019-6-18T15:23:45Z
2019-06-18T13:26:31Z,42.805,6.029,13.2949,4.59952,2469.713,2019-6-18T15:26:48Z
2019-06-18T13:29:34Z,42.805,6.029,13.2954,4.59952,2469.69,2019-6-18T15:29:51Z
2019-06-18T13:32:37Z,42.805,6.029,13.2951,4.59952,2469.713,2019-6-18T15:32:54Z
2019-06-18T13:35:40Z,42.805,6.029,13.2950,4.59952,2469.68,2019-6-18T15:35:57Z
2019-06-18T13:38:43Z,42.805,6.029,13.2951,4.59951,2469.704,2019-6-18T15:39:00Z
2019-06-18T13:41:46Z,42.805,6.029,13.2953,4.59953,2469.704,2019-6-18T15:42:03Z
2019-06-18T13:44:49Z,42.805,6.029,13.2949,4.59953,2469.69,2019-6-18T15:45:06Z
2019-06-18T13:47:52Z,42.805,6.029,13.2951,4.59951,2469.69,2019-6-18T15:48:08Z
2019-06-18T13:50:55Z,42.805,6.029,13.2949,4.59952,2469.75,2019-6-18T15:51:11Z
2019-06-18T13:53:58Z,42.805,6.029,13.2953,4.59951,2469.667,2019-6-18T15:54:14Z
2019-06-18T13:57:01Z,42.805,6.029,13.2950,4.59952,2469.704,2019-6-18T15:57:17Z
2019-06-18T14:00:04Z,42.805,6.029,13.2953,4.59954,2469.704,2019-6-18T16:00:20Z
2019-06-18T14:03:07Z,42.805,6.029,13.2950,4.59953,2469.713,2019-6-18T16:03:23Z
2019-06-18T14:06:10Z,42.805,6.029,13.2953,4.59951,2469.68,2019-6-18T16:06:26Z
2019-06-18T14:09:13Z,42.805,6.029,13.2952,4.59952,2469.653,2019-6-18T16:09:29Z
2019-06-18T14:12:16Z,42.805,6.029,13.2954,4.59954,2469.667,2019-6-18T16:12:32Z
2019-06-18T14:15:19Z,42.805,6.029,13.2951,4.59954,2469.68,2019-6-18T16:15:35Z
2019-06-18T14:18:22Z,42.805,6.029,13.2949,4.59952,2469.704,2019-6-18T16:18:38Z
2019-06-18T14:21:25Z,42.805,6.029,13.2952,4.59954,2469.69,2019-6-18T16:21:41Z
2019-06-18T14:24:28Z,42.805,6.029,13.2950,4.59954,2469.657,2019-6-18T16:24:44Z
2019-06-18T14:27:30Z,42.805,6.029,13.2951,4.59952,2469.667,2019-6-18T16:27:47Z
2019-06-18T14:30:33Z,42.805,6.029,13.2956,4.59953,2469.68,2019-6-18T16:30:50Z
2019-06-18T14:33:36Z,42.805,6.029,13.2950,4.59953,2469.713,2019-6-18T16:33:53Z
2019-06-18T14:36:39Z,42.805,6.029,13.2950,4.59954,2469.68,2019-6-18T16:36:56Z
2019-06-18T14:39:42Z,42.805,6.029,13.2947,4.59954,2469.713,2019-6-18T16:39:59Z
2019-06-18T14:42:45Z,42.805,6.029,13.2953,4.59954,2469.667,2019-6-18T16:43:02Z
2019-06-18T14:45:48Z,42.805,6.029,13.2952,4.59955,2469.667,2019-6-18T16:46:05Z
2019-06-18T14:48:51Z,42.805,6.029,13.2957,4.59953,2469.713,2019-6-18T16:49:08Z
2019-06-18T14:51:54Z,42.805,6.029,13.2949,4.59954,2469.69,2019-6-18T16:52:10Z
2019-06-18T14:54:57Z,42.805,6.029,13.2950,4.59954,2469.667,2019-6-18T16:55:13Z
2019-06-18T14:58:00Z,42.805,6.029,13.2953,4.59953,2469.69,2019-6-18T16:58:16Z
2019-06-18T15:01:03Z,42.805,6.029,13.2953,4.59954,2469.704,2019-6-18T17:01:19Z
2019-06-18T15:04:06Z,42.805,6.029,13.2953,4.59955,2469.704,2019-6-18T17:04:22Z
2019-06-18T15:07:09Z,42.805,6.029,13.2952,4.59954,2469.737,2019-6-18T17:07:25Z
2019-06-18T15:10:12Z,42.805,6.029,13.2952,4.59953,2469.69,2019-6-18T17:10:28Z